This demonstration page uses our WeatherBlox Daily Observations layout. Learn more.

Left ArrowRight Arrow

Hourly Observations for March 30, 2020

Temp ( °F °C ) Dew Point ( °F °C ) Humidity (%) Winds ( mph kmh ) Pressure ( in mb ) Visibility ( mi km ) Precip ( " mm )
12:53 am 00:53 Clear 57 13.9 32 undefined 39 39 W 12 19 30.00 1016 10 16 N/A
1:53 am 01:53 Clear 55 12.8 32 undefined 42 42 WSW 10 17 30.00 1016 10 16 N/A
2:53 am 02:53 Clear 55 12.8 30 -1.1 38 38 W 14 22 30.00 1016 10 16 N/A
3:53 am 03:53 Clear 54 12.2 32 undefined 43 43 W 14 22 30.00 1016 10 16 N/A
4:53 am 04:53 Clear 52 11.1 34 1.1 50 50 W 14 22 30.02 1017 10 16 N/A
5:53 am 05:53 Clear 50 10 34 1.1 54 54 W 15 24 30.05 1018 10 16 N/A
6:53 am 06:53 Clear 49 9.4 31 -0.6 50 50 W 10 17 30.06 1018 10 16 N/A
7:53 am 07:53 Sunny 48 8.9 32 undefined 54 54 W 10 17 30.09 1019 10 16 N/A
8:53 am 08:53 Sunny 48 8.9 32 undefined 54 54 W 12 19 30.12 1020 10 16 N/A
9:53 am 09:53 Sunny 50 10 34 1.1 54 54 W 9 15 30.13 1020 10 16 N/A
10:53 am 10:53 Sunny 51 10.6 34 1.1 52 52 W 16 26 30.13 1020 10 16 N/A
11:53 am 11:53 Sunny 54 12.2 35 1.7 49 49 WNW 20 31 30.14 1021 10 16 N/A
12:53 pm 12:53 Partly Cloudy 55 12.8 35 1.7 47 47 W 20 31 30.14 1021 10 16 N/A
1:53 pm 13:53 Mostly Sunny 58 14.4 36 2.2 44 44 W 16 26 30.12 1020 10 16 N/A
2:53 pm 14:53 Mostly Sunny 58 14.4 35 1.7 42 42 WNW 17 28 30.11 1020 10 16 N/A
3:53 pm 15:53 Sunny 60 15.6 34 1.1 38 38 WNW 22 35 30.10 1019 10 16 N/A
4:53 pm 16:53 Mostly Sunny 60 15.6 36 2.2 41 41 WNW 22 35 30.08 1019 10 16 N/A
5:53 pm 17:53 Partly Cloudy 58 14.4 36 2.2 44 44 WNW 17 28 30.08 1019 10 16 N/A
6:53 pm 18:53 Mostly Sunny 56 13.3 37 2.8 49 49 NNW 12 19 30.09 1019 10 16 N/A
7:53 pm 19:53 Mostly Sunny 51 10.6 38 3.3 61 61 NNE 8 13 30.10 1019 10 16 N/A
8:53 pm 20:53 Cloudy 50 10 37 2.8 61 61 NNE 6 9 30.13 1020 10 16 N/A
9:53 pm 21:53 Cloudy 49 9.4 36 2.2 61 61 NNE 7 11 30.13 1020 10 16 N/A
10:53 pm 22:53 Clear 46 7.8 35 1.7 66 66 NNE 7 11 30.10 1019 10 16 N/A
11:53 pm 23:53 Clear 45 7.2 35 1.7 68 68 NNE 5 7 30.11 1020 10 16 N/A

Powered by AerisWeather